AirNav   ProFlight Series 2 Aviation Headset
 
 1184 users online  

SC45 Gilbert International Airpark
Gilbert, South Carolina, USA

GOING TO GILBERT?


FAA INFORMATION EFFECTIVE 13 AUGUST 2020

Location

FAA Identifier: SC45
Lat/Long: 33-53-02.5270N 081-22-54.3660W
33-53.042117N 081-22.906100W
33.8840353,-81.3817683
(estimated)
Elevation: 551 ft. / 168 m (estimated)
Variation: 04W (1985)
From city: 2 miles S of GILBERT, SC
Time zone: UTC -4 (UTC -5 during Standard Time)
Zip code: 29054

Airport Operations

Airport use: Private use. Permission required prior to landing
Activation date: 11/1990
Control tower: no
ARTCC: JACKSONVILLE CENTER
FSS: ANDERSON FLIGHT SERVICE STATION
Attendance: UNATNDD
Wind indicator: yes
Segmented circle: no
Lights: ACTVT MIRL RY 09/27 - 122.85

Airport Communications

WX ASOS at CAE (13 nm E): 120.15 (803-822-4168)
WX ASOS at CUB (20 nm E): 118.675 (803-929-0665)

Nearby radio navigation aids

VOR radial/distance  VOR name  Freq  Var
CAEr278/16.4COLUMBIA VORTAC114.7002W
MMTr273/29.0MC ENTIRE VORTAC113.2008W

 
NDB name  Hdg/Dist  Freq  Var  ID
MURRY241/8.436207WCA -.-. .-
AIKEN053/20.334706WAIK .- .. -.-
ENOREE161/28.627807WEOE . --- .
EMORY055/39.838504WEMR . -- .-.

Airport Services

Runway Information

Runway 9/27

Dimensions: 3000 x 75 ft. / 914 x 23 m
Surface: turf, in fair condition
Runway edge lights: low intensity
RUNWAY 9  RUNWAY 27
Traffic pattern: leftleft
Obstructions: 50 ft. trees, 300 ft. from runway50 ft. trees, 50 ft. from runway

Airport Ownership and Management from official FAA records

Ownership: Privately-owned
Owner: GILBERT INT'L AIRPARK HO ASSOC.
231 UPWIND LEG RD
GILBERT, SC 29054-8555
Phone 803-657-8262
CONTACT PERSONS: MR. PHIL LUMPKIN/803-657-7797 OR MR. DAVID HARDY/803-657-7108.
Manager: DAVID HARDY, ASSOCIATION PRESIDENT
376 DOWNWIND LEE RD
GILBERT, SC 29054
Phone 803-463-7662

Airport Operational Statistics

Aircraft based on the field: 17
Single engine airplanes: 16
Multi engine airplanes: 1
    

Additional Remarks

LIGHTED PORTION OF RWY IS 2400 FT; 300FT OVER RUN EACH END.
FOR CD CTC COLUMBIA APCH AT 803-822-5242 OR 803-822-5040.

Instrument Procedures

There are no published instrument procedures at SC45.

Some nearby airports with instrument procedures:

6J0 - Lexington County Airport (9 nm SE)
KCAE - Columbia Metropolitan Airport (13 nm E)
KCUB - Jim Hamilton L B Owens Airport (20 nm E)
KAIK - Aiken Regional Airport (21 nm SW)
6J4 - Saluda County Airport (21 nm W)
 
Loc | Ops | Rwys | IFR | FBO | Links
Com | Nav | Svcs | Stats | Notes
Area around SC45 (Gilbert International Airpark)
 
Road maps at: MapQuest Bing Google
 
Aerial photo
WARNING: Photo may not be current or correct
Aerial photo of SC45 (Gilbert International Airpark)
Taken in the Summer of 2009

Do you have a better or more recent aerial photo of Gilbert International Airpark that you would like to share? If so, please send us your photo.

 
Sectional chart

 
Airport distance calculator
Flying to Gilbert International Airpark? Find the distance to fly.

From to SC45

Sunrise and sunset
Times for 15-Aug-2020
 Local
(UTC-4)
 Zulu
(UTC)
Morning civil twilight06:2310:23
Sunrise06:4910:49
Sunset20:1100:11
Evening civil twilight20:3700:37

Current date and time
Zulu (UTC)  15-Aug-2020 19:21:00
Local (UTC-4)  15-Aug-2020 15:21:00
 
METAR
KCAE 
14nm E 
151856Z 13004KT 10SM VCTS SCT023 SCT130 BKN240 30/25 A2984 RMK AO2 LTG DSNT ALQDS RAE37 SLP101 CB DSNT ALQDS P0002 T03000250 $
KCUB 
20nm E 
151853Z AUTO 16010KT 10SM CLR 28/24 A2985 RMK AO2 LTG DSNT NE AND SE AND W RAE24 TSE09 SLP105 P0004 T02830239
KAIK 
21nm SW 
151855Z AUTO 22003KT 10SM TS SCT032 SCT048 SCT085 28/25 A2987 RMK AO2 LTG DSNT ALQDS P0006 T02850252
KXNO 
22nm SE 
151856Z AUTO 17003KT 10SM FEW012 SCT018 29/29 A2986 RMK AO2 RAE1759DZB1759E07 SLP111 P0001 T02920291 $
TAF
KCAE 
14nm E 
151739Z 1518/1618 22009KT P6SM VCSH SCT070 TEMPO 1518/1522 3SM -TSRA SCT025CB FM160200 VRB04KT P6SM SCT030 BKN100 FM160700 24003KT P6SM SCT007 BKN015
KCUB 
20nm E 
151739Z 1518/1618 22009KT P6SM VCSH SCT070 TEMPO 1518/1522 3SM -TSRA SCT025CB FM160200 VRB04KT P6SM SCT030 BKN100 FM160700 24003KT P6SM SCT007 BKN015
NOTAMs
Click for the latest NOTAMs
NOTAMs are issued by the DoD/FAA and will open in a separate window not controlled by AirNav.

 

 
 

Would you like to see your business listed on this page?

 If your business provides an interesting product or service to pilots, flight crews, aircraft, or users of the Gilbert International Airpark, you should consider listing it here.  To start the listing process, click on the button below
 
Add a business
 

Other Pages about Gilbert International Airpark

Update a link
 
Copyright © AirNav, LLC. All rights reserved. Privacy Policy  Contact